FW1786 Weather Reports


Display with metric or nautical units.
time (UTC)temp
F
wind
direction
speed
MPH
gust
MPH
rain 1hr
in
rain 24hr
in
rain mn
in
humidity
%
barometer
mb
20260505230015 51 331 1.0 8.0 0.00 0.75 0.75 93 1008.2
20260505224515 52 57 1.0 8.0 0.00 0.75 0.75 93 1008.1
20260505223008 52 347 0.0 8.0 0.00 0.75 0.75 93 1007.7
20260505221514 52 305 2.0 9.0 0.00 0.75 0.75 93 1007.6
20260505220017 53 277 2.0 8.0 0.00 0.75 0.75 92 1008.3
20260505214512 53 49 4.0 11.0 0.00 0.75 0.75 92 1007.7
20260505213015 53 38 1.0 6.0 0.00 0.75 0.75 93 1007.5
20260505211513 54 37 1.0 7.0 0.01 0.75 0.75 93 1007.6
20260505210018 54 130 1.0 9.0 0.01 0.75 0.75 93 1007.6
20260505204520 55 352 1.0 5.0 0.01 0.75 0.75 93 1007.6
20260505203024 55 329 1.0 6.0 0.01 0.75 0.75 93 1007.5
20260505201517 55 58 1.0 4.0 0.01 0.74 0.74 93 1008.1
20260505200013 56 138 1.0 6.0 0.02 0.74 0.74 94 1007.1
20260505194520 56 191 2.0 8.0 0.04 0.74 0.74 93 1007.2
20260505193030 56 28 1.0 6.0 0.04 0.74 0.74 93 1007.3
20260505191524 57 27 2.0 9.0 0.04 0.73 0.73 93 1007.4
20260505190012 57 360 2.0 7.0 0.03 0.72 0.72 93 1007.1
20260505184517 58 346 2.0 10.0 0.01 0.70 0.70 93 1007.1
20260505183019 59 349 2.0 8.0 0.01 0.70 0.70 93 1006.6
20260505181525 60 9 3.0 10.0 0.00 0.69 0.69 92 1006.8
20260505180028 62 138 3.0 9.0 0.00 0.69 0.69 91 1006.5
20260505174522 63 360 0.0 2.0 0.00 0.69 0.69 93 1006.2
20260505173021 63 360 0.0 2.0 0.00 0.69 0.69 93 1006.1
20260505171522 63 47 0.0 3.0 0.00 0.69 0.69 92 1006.4
20260505170020 63 352 0.0 2.0 0.00 0.69 0.69 93 1006.6
20260505164514 63 313 0.0 7.0 0.00 0.69 0.69 93 1006.2
20260505163021 63 319 0.0 2.0 0.00 0.69 0.69 93 1006.1
20260505161518 63 282 0.0 2.0 0.00 0.69 0.69 93 1006.1
20260505153016 62 324 0.0 4.0 0.00 0.69 0.69 95 1005.8
20260505151519 62 64 0.0 2.0 0.00 0.69 0.69 95 1006.0
20260505124528 60 57 1.0 2.0 0.00 0.68 0.68 95 1006.0
20260505123026 60 193 0.0 1.0 0.00 0.68 0.68 95 1005.7
20260505121517 60 193 0.0 1.0 0.00 0.68 0.68 95 1005.4
20260505120021 60 193 0.0 1.0 0.00 0.68 0.68 95 1005.4
20260505114519 60 254 0.0 1.0 0.00 0.68 0.68 95 1005.2
20260505113020 60 254 0.0 1.0 0.01 0.68 0.68 95 1005.0
20260505111511 60 254 0.0 1.0 0.03 0.68 0.68 95 1005.3
20260505101518 60 199 0.0 3.0 0.13 0.65 0.65 95 1006.5
20260505100021 60 304 0.0 2.0 0.15 0.61 0.61 95 1006.8
20260505094506 60 77 0.0 2.0 0.16 0.58 0.58 95 1006.5
20260505093025 60 102 0.0 2.0 0.15 0.55 0.55 95 1006.9
20260505091510 60 311 0.0 3.0 0.15 0.52 0.52 94 1006.1
20260505090004 60 352 1.0 2.0 0.18 0.46 0.46 94 1006.0
20260505084506 60 126 1.0 3.0 0.38 0.43 0.43 94 1005.9
20260505083008 60 117 0.0 3.0 0.37 0.40 0.40 94 1006.4
20260505081507 60 266 0.0 3.0 0.35 0.37 0.37 94 1006.4
20260505080008 60 96 1.0 3.0 0.27 0.28 0.28 93 1006.9
20260505074508 59 34 1.0 3.0 0.05 0.05 0.05 93 1006.6
20260505073008 60 132 0.0 2.0 0.03 0.03 0.03 92 1006.1
20260505071510 60 171 0.0 2.0 0.02 0.02 0.02 90 1006.4
20260505070013 60 292 1.0 2.0 0.01 0.01 0.01 90 1006.2
20260505064517 60 319 0.0 1.0 0.00 0.00 0.00 89 1005.9
20260505063016 60 319 0.0 1.0 0.00 0.00 0.00 88 1006.4
20260505061507 59 319 0.0 2.0 0.00 0.00 0.00 88 1006.6
20260505060023 59 324 0.0 1.0 0.00 0.00 0.00 88 1006.7
20260505054531 59 324 0.0 1.0 0.00 0.00 0.00 89 1006.4
20260505053018 58 323 0.0 1.0 0.00 0.00 0.00 90 1006.4
20260505051521 58 323 0.0 2.0 0.00 0.00 0.00 89 1006.1
20260505041521 58 31 0.0 1.0 0.00 0.00 0.00 87 1006.8
20260505040025 59 72 0.0 1.0 0.00 0.00 0.00 87 1007.1
20260505034514 59 134 0.0 1.0 0.00 0.00 0.00 85 1007.2
20260505033021 60 155 0.0 0.0 0.00 0.00 0.00 83 1007.3
20260505031519 60 155 0.0 0.0 0.00 0.00 0.00 82 1007.4
20260505030025 61 150 0.0 1.0 0.00 0.00 0.00 80 1007.4
20260505024510 62 146 0.0 1.0 0.00 0.00 0.00 77 1007.3
20260505023018 63 142 0.0 0.0 0.00 0.00 0.00 74 1007.2
20260505021524 65 142 0.0 1.0 0.00 0.00 0.00 72 1006.9
20260505020022 67 142 0.0 1.0 0.00 0.00 0.00 66 1006.7
20260505014522 68 178 0.0 3.0 0.00 0.00 0.00 62 1006.4
20260505013017 69 213 0.0 3.0 0.00 0.00 0.00 61 1006.0
20260505011519 70 152 0.0 5.0 0.00 0.00 0.00 57 1005.9
20260505010024 72 193 2.0 12.0 0.00 0.00 0.00 55 1005.8
20260505004538 72 163 2.0 7.0 0.00 0.00 0.00 55 1005.8
20260505003025 73 273 1.0 13.0 0.00 0.00 0.00 54 1005.7
20260505001515 73 275 3.0 10.0 0.00 0.00 0.00 53 1005.7
20260505000021 74 189 1.0 6.0 0.00 0.00 0.00 54 1005.7
20260504234527 75 254 2.0 10.0 0.00 0.00 0.00 51 1005.6
20260504233020 76 167 2.0 7.0 0.00 0.00 0.00 51 1005.6
20260504231532 76 165 3.0 9.0 0.00 0.00 0.00 49 1005.7